sat.trackr.live / text

‹ back to catalog

STARLINK-31261

NORAD 59084 · 2024-041L

PAYLOAD ACTIVE UNKNOWN

§ Identity

Operator
Country
US
Launch date
2024-02-29
Launch site
AFETR
Launch vehicle
Mass (kg)
RCS (m²)

Purposes: comms

External: N2YO · Heavens-Above · Gunter

§ Orbital elements

Epoch: 2026-05-24T22:57:09.029664Z

Period
94.27 min
Inclination
42.9986°
Eccentricity
0.0000869
Mean motion
15.27573678 rev/d
Perigee alt
482.5 km
Apogee alt
483.7 km
Semi-major
6,861.2 km
B*
-1.3686e-5
RAAN
240.1462°
Arg perigee
281.4142°
Mean anomaly
78.6612°
Rev number
12,598

§ Raw data

STARLINK-312611 59084U 24041L   26144.95635451 -.00000638  00000+0 -13686-4 0  99982 59084  42.9986 240.1462 0000869 281.4142  78.6612 15.27573678125986

JSON: /api/v1/satellites/59084 · /tle

For live sub-satellite position, see the globe view (requires WebGL).

§ Visibility from observer

Set your observer location to see the next 7 days of passes ≥ 10°. The values pass through the URL so the page stays shareable.

No JS? Fill the form by hand. The geolocation button needs JavaScript.